,,Stat6,,Stat2,,Stat8,,Stat9,,Stat10,,Wind1,,Wind1,
time,status,PA1M_AVG,status,PR1M_SUM,status,RH1M_AVG,status,SR1M_AVG,status,TA1M_AVG,status,W1dAve1m,status,W1sAve1m,
2007-04-28, 00:00:00,VALID,917.955,VALID,0,VALID,100,VALID,-0.0339617,VALID,20.6049,VALID,342,VALID,0.308685,
2007-04-28, 00:01:00,VALID,917.934,VALID,0,VALID,100,VALID,-0.0509425,VALID,20.5887,VALID,322,VALID,0.113467,
2007-04-28, 00:02:00,VALID,917.911,VALID,0,VALID,100,VALID,-0.0169808,VALID,20.5722,VALID,322,VALID,0.0288318,
2007-04-28, 00:03:00,VALID,917.88,VALID,0,VALID,100,VALID,-0.0169808,VALID,20.5562,VALID,322,VALID,0.106957,
2007-04-28, 00:04:00,VALID,917.869,VALID,0,VALID,100,VALID,-0.0339617,VALID,20.5757,VALID,326,VALID,0.358232,
2007-04-28, 00:05:00,VALID,917.848,VALID,0,VALID,100,VALID,-0.0339617,VALID,20.6109,VALID,328,VALID,0.422396,
2007-04-28, 00:06:00,VALID,917.838,VALID,0,VALID,100,VALID,-0.0339617,VALID,20.5982,VALID,328,VALID,0.233526,
2007-04-28, 00:07:00,VALID,917.808,VALID,0,VALID,100,VALID,-0.0339617,VALID,20.5657,VALID,329,VALID,0.168341,
2007-04-28, 00:08:00,VALID,917.809,VALID,0,VALID,100,VALID,-0.0509425,VALID,20.5527,VALID,330,VALID,0.10774,
2007-04-28, 00:09:00,VALID,917.786,VALID,0,VALID,100,VALID,-0.0339617,VALID,20.5527,VALID,330,VALID,0,
2007-04-28, 00:10:00,VALID,917.769,VALID,0,VALID,100,VALID,-0.0339617,VALID,20.5362,VALID,330,VALID,0,
2007-04-28, 00:11:00,VALID,917.762,VALID,0,VALID,100,VALID,-0.0679233,VALID,20.517,VALID,330,VALID,0,
2007-04-28, 00:12:00,VALID,917.755,VALID,0,VALID,100,VALID,-0.0509425,VALID,20.5073,VALID,330,VALID,0,
2007-04-28, 00:13:00,VALID,917.755,VALID,0,VALID,100,VALID,-0.118866,VALID,20.5011,VALID,330,VALID,0,
2007-04-28, 00:14:00,VALID,917.764,VALID,0,VALID,100,VALID,-0.0679233,VALID,20.4978,VALID,330,VALID,0,
2007-04-28, 00:15:00,VALID,917.755,VALID,0,VALID,100,VALID,-0.0849042,VALID,20.4816,VALID,330,VALID,0,
2007-04-28, 00:16:00,VALID,917.758,VALID,0,VALID,100,VALID,-0.101885,VALID,20.4586,VALID,237,VALID,0.508523,
2007-04-28, 00:17:00,VALID,917.751,VALID,0,VALID,100,VALID,-0.0509425,VALID,20.4394,VALID,185,VALID,0.50071,
2007-04-28, 00:18:00,VALID,917.729,VALID,0,VALID,100,VALID,-0.0679233,VALID,20.4234,VALID,169,VALID,0.592152,
2007-04-28, 00:19:00,VALID,917.728,VALID,0,VALID,100,VALID,-0.0679233,VALID,20.4005,VALID,155,VALID,0.588356,
2007-04-28, 00:20:00,VALID,917.727,VALID,0,VALID,100,VALID,-0.0679233,VALID,20.3872,VALID,155,VALID,0.410442,
2007-04-28, 00:21:00,VALID,917.697,VALID,0,VALID,100,VALID,-0.0849042,VALID,20.3742,VALID,156,VALID,0.414789,
2007-04-28, 00:22:00,VALID,917.678,VALID,0,VALID,100,VALID,-0.0339617,VALID,20.361,VALID,156,VALID,0.558933,
2007-04-28, 00:23:00,VALID,917.671,VALID,0,VALID,100,VALID,-0.0509425,VALID,20.361,VALID,154,VALID,0.381454,
2007-04-28, 00:24:00,VALID,917.658,VALID,0,VALID,100,VALID,-0.0339617,VALID,20.371,VALID,123,VALID,0.655342,
2007-04-28, 00:25:00,VALID,917.653,VALID,0,VALID,100,VALID,-0.0339617,VALID,20.3615,VALID,83,VALID,0.573438,
2007-04-28, 00:26:00,VALID,917.639,VALID,0,VALID,100,VALID,-0.0509425,VALID,20.3453,VALID,74,VALID,0.579459,
2007-04-28, 00:27:00,VALID,917.631,VALID,0,VALID,100,VALID,0,VALID,20.3315,VALID,74,VALID,0.265803,
2007-04-28, 00:28:00,VALID,917.619,VALID,0,VALID,100,VALID,-0.0339617,VALID,20.3288,VALID,74,VALID,0.0628634,
2007-04-28, 00:29:00,VALID,917.621,VALID,0,VALID,100,VALID,-0.0849042,VALID,20.3223,VALID,74,VALID,0,
2007-04-28, 00:30:00,VALID,917.623,VALID,0,VALID,100,VALID,-0.0509425,VALID,20.3061,VALID,74,VALID,0.0182927,
2007-04-28, 00:31:00,VALID,917.619,VALID,0,VALID,100,VALID,-0.0509425,VALID,20.3096,VALID,74,VALID,0.164648,
2007-04-28, 00:32:00,VALID,917.576,VALID,0,VALID,100,VALID,-0.0679233,VALID,20.3261,VALID,72,VALID,0.589749,
2007-04-28, 00:33:00,VALID,917.542,VALID,0,VALID,100,VALID,-0.0509425,VALID,20.3418,VALID,57,VALID,1.23475,
2007-04-28, 00:34:00,VALID,917.532,VALID,0,VALID,100,VALID,-0.0339617,VALID,20.3191,VALID,55,VALID,1.41033,
2007-04-28, 00:35:00,VALID,917.528,VALID,0,VALID,100,VALID,-0.0509425,VALID,20.3061,VALID,62,VALID,1.30139,
2007-04-28, 00:36:00,VALID,917.536,VALID,0,VALID,100,VALID,-0.0509425,VALID,20.2869,VALID,70,VALID,0.669727,
2007-04-28, 00:37:00,VALID,917.527,VALID,0,VALID,100,VALID,-0.0509425,VALID,20.2771,VALID,125,VALID,0.41282,
2007-04-28, 00:38:00,VALID,917.531,VALID,0,VALID,100,VALID,-0.0169808,VALID,20.2509,VALID,164,VALID,0.689174,
2007-04-28, 00:39:00,VALID,917.539,VALID,0,VALID,100,VALID,-0.0509425,VALID,20.2372,VALID,182,VALID,0.68064,
2007-04-28, 00:40:00,VALID,917.534,VALID,0,VALID,100,VALID,-0.0169808,VALID,20.2442,VALID,179,VALID,0.563565,
2007-04-28, 00:41:00,VALID,917.515,VALID,0,VALID,100,VALID,-0.0339617,VALID,20.2537,VALID,178,VALID,0.28032,
2007-04-28, 00:42:00,VALID,917.498,VALID,0,VALID,100,VALID,-0.0509425,VALID,20.2764,VALID,178,VALID,0.234193,
2007-04-28, 00:43:00,VALID,917.494,VALID,0,VALID,100,VALID,-0.0679233,VALID,20.3058,VALID,178,VALID,0.124805,
2007-04-28, 00:44:00,VALID,917.47,VALID,0,VALID,100,VALID,-0.0339617,VALID,20.3221,VALID,178,VALID,0.155134,
2007-04-28, 00:45:00,VALID,917.465,VALID,0,VALID,100,VALID,0,VALID,20.3188,VALID,178,VALID,0.592188,
2007-04-28, 00:46:00,VALID,917.446,VALID,0,VALID,100,VALID,-0.0339617,VALID,20.3093,VALID,172,VALID,1.03613,
2007-04-28, 00:47:00,VALID,917.433,VALID,0,VALID,100,VALID,-0.0339617,VALID,20.3156,VALID,165,VALID,0.648983,
2007-04-28, 00:48:00,VALID,917.401,VALID,0,VALID,100,VALID,-0.0339617,VALID,20.3253,VALID,127,VALID,0.683685,
2007-04-28, 00:49:00,VALID,917.401,VALID,0,VALID,100,VALID,-0.0339617,VALID,20.3545,VALID,70,VALID,0.291406,
2007-04-28, 00:50:00,VALID,917.39,VALID,0,VALID,100,VALID,0,VALID,20.3415,VALID,102,VALID,0.269531,
2007-04-28, 00:51:00,VALID,917.38,VALID,0,VALID,100,VALID,-0.0339617,VALID,20.3321,VALID,197,VALID,0.459339,
2007-04-28, 00:52:00,VALID,917.363,VALID,0,VALID,100,VALID,-0.0339617,VALID,20.3158,VALID,197,VALID,0.510603,
2007-04-28, 00:53:00,VALID,917.355,VALID,0,VALID,100,VALID,-0.0849042,VALID,20.2734,VALID,178,VALID,0.582775,
2007-04-28, 00:54:00,VALID,917.348,VALID,0,VALID,100,VALID,-0.0169808,VALID,20.2707,VALID,204,VALID,0.486151,
2007-04-28, 00:55:00,VALID,917.35,VALID,0,VALID,100,VALID,-0.0169808,VALID,20.2869,VALID,191,VALID,0.165587,
2007-04-28, 00:56:00,VALID,917.332,VALID,0,VALID,100,VALID,0,VALID,20.2964,VALID,191,VALID,0.0192708,
2007-04-28, 00:57:00,VALID,917.339,VALID,0,VALID,100,VALID,-0.0679233,VALID,20.2964,VALID,191,VALID,0.00114329,
2007-04-28, 00:58:00,VALID,917.336,VALID,0,VALID,100,VALID,-0.0339617,VALID,20.3093,VALID,191,VALID,0.268111,
2007-04-28, 00:59:00,VALID,917.316,VALID,0,VALID,100,VALID,-0.0169808,VALID,20.3288,VALID,193,VALID,0.622396,
2007-04-28, 01:00:00,VALID,917.328,VALID,0,VALID,100,VALID,0,VALID,20.3186,VALID,199,VALID,0.400036,
2007-04-28, 01:01:00,VALID,917.311,VALID,0,VALID,100,VALID,0,VALID,20.3058,VALID,289,VALID,0.42569,
2007-04-28, 01:02:00,VALID,917.306,VALID,0,VALID,100,VALID,0,VALID,20.3021,VALID,313,VALID,0.627308,
2007-04-28, 01:03:00,VALID,917.295,VALID,0,VALID,100,VALID,-0.0169808,VALID,20.3153,VALID,5,VALID,0.719141,
2007-04-28, 01:04:00,VALID,917.286,VALID,0,VALID,100,VALID,0,VALID,20.3188,VALID,5,VALID,0.578303,
2007-04-28, 01:05:01,VALID,917.278,VALID,0,VALID,100,VALID,-0.0169808,VALID,20.3153,VALID,5,VALID,0.244336,
2007-04-28, 01:06:00,VALID,917.247,VALID,0,VALID,100,VALID,-0.0169808,VALID,20.3253,VALID,5,VALID,0.138765,
2007-04-28, 01:07:01,VALID,917.227,VALID,0,VALID,100,VALID,0,VALID,20.3216,VALID,5,VALID,0.233073,
2007-04-28, 01:08:00,VALID,917.192,VALID,0,VALID,100,VALID,-0.0339617,VALID,20.3286,VALID,5,VALID,0.25,
2007-04-28, 01:09:00,VALID,917.18,VALID,0,VALID,100,VALID,-0.0169808,VALID,20.3383,VALID,5,VALID,0.0413707,
2007-04-28, 01:10:00,VALID,917.185,VALID,0,VALID,100,VALID,-0.0849042,VALID,20.3418,VALID,5,VALID,0,
2007-04-28, 01:11:01,VALID,917.19,VALID,0,VALID,100,VALID,-0.0169808,VALID,20.3385,VALID,5,VALID,0,
2007-04-28, 01:12:00,VALID,917.177,VALID,0,VALID,100,VALID,-0.101885,VALID,20.3366,VALID,5,VALID,0,
2007-04-28, 01:13:00,VALID,917.145,VALID,0,VALID,100,VALID,-0.118866,VALID,20.3366,VALID,5,VALID,0,
2007-04-28, 01:14:00,VALID,917.118,VALID,0,VALID,100,VALID,0,VALID,20.3418,VALID,5,VALID,0.150213,
2007-04-28, 01:15:00,VALID,917.09,VALID,0,VALID,100,VALID,-0.0169808,VALID,20.3445,VALID,5,VALID,0,
2007-04-28, 01:16:00,VALID,917.078,VALID,0,VALID,100,VALID,-0.0169808,VALID,20.3583,VALID,5,VALID,0,
2007-04-28, 01:17:00,VALID,917.046,VALID,0,VALID,100,VALID,-0.0339617,VALID,20.371,VALID,5,VALID,0,
2007-04-28, 01:18:01,VALID,917.044,VALID,0,VALID,100,VALID,-0.0509425,VALID,20.3678,VALID,5,VALID,0,
2007-04-28, 01:19:00,VALID,917.036,VALID,0,VALID,100,VALID,-0.0509425,VALID,20.3645,VALID,5,VALID,0.0687881,
2007-04-28, 01:20:00,VALID,917.006,VALID,0,VALID,100,VALID,-0.0339617,VALID,20.3548,VALID,5,VALID,0,
2007-04-28, 01:21:00,VALID,916.981,VALID,0,VALID,100,VALID,-0.0169808,VALID,20.3543,VALID,5,VALID,0.0917468,
2007-04-28, 01:22:01,VALID,916.966,VALID,0,VALID,100,VALID,-0.0509425,VALID,20.3737,VALID,26,VALID,0.574963,
2007-04-28, 01:23:00,VALID,916.955,VALID,0,VALID,100,VALID,-0.0169808,VALID,20.3678,VALID,47,VALID,0.826349,
2007-04-28, 01:24:01,VALID,916.963,VALID,0,VALID,100,VALID,0,VALID,20.345,VALID,51,VALID,0.792151,
2007-04-28, 01:25:00,VALID,916.954,VALID,0,VALID,100,VALID,0,VALID,20.3251,VALID,51,VALID,0.37936,
2007-04-28, 01:26:01,VALID,916.949,VALID,0,VALID,100,VALID,-0.0509425,VALID,20.3191,VALID,51,VALID,0.258721,
2007-04-28, 01:27:01,VALID,916.944,VALID,0,VALID,100,VALID,-0.0169808,VALID,20.3156,VALID,51,VALID,0.149653,
2007-04-28, 01:28:00,VALID,916.935,VALID,0,VALID,100,VALID,-0.0339617,VALID,20.3061,VALID,51,VALID,0.174293,
2007-04-28, 01:29:00,VALID,916.913,VALID,0,VALID,100,VALID,-0.0169808,VALID,20.2996,VALID,51,VALID,0.0445131,
2007-04-28, 01:30:01,VALID,916.889,VALID,0,VALID,100,VALID,-0.0509425,VALID,20.2869,VALID,51,VALID,0,
2007-04-28, 01:31:00,VALID,916.868,VALID,0,VALID,100,VALID,-0.0339617,VALID,20.2864,VALID,51,VALID,0,
2007-04-28, 01:32:00,VALID,916.845,VALID,0,VALID,100,VALID,-0.0679233,VALID,20.2993,VALID,51,VALID,0,
2007-04-28, 01:33:00,VALID,916.834,VALID,0,VALID,100,VALID,-0.0339617,VALID,20.3156,VALID,51,VALID,0,
2007-04-28, 01:34:00,VALID,916.828,VALID,0,VALID,100,VALID,-0.0339617,VALID,20.3288,VALID,51,VALID,0.0269886,
2007-04-28, 01:35:00,VALID,916.813,VALID,0,VALID,100,VALID,-0.0169808,VALID,20.3483,VALID,293,VALID,0.477865,
2007-04-28, 01:36:00,VALID,916.795,VALID,0,VALID,100,VALID,-0.0339617,VALID,20.3485,VALID,273,VALID,0.0736607,
2007-04-28, 01:37:00,VALID,916.807,VALID,0,VALID,100,VALID,-0.0509425,VALID,20.3548,VALID,273,VALID,0.00106534,
2007-04-28, 01:38:00,VALID,916.784,VALID,0,VALID,100,VALID,0,VALID,20.3513,VALID,273,VALID,0,
2007-04-28, 01:39:01,VALID,916.781,VALID,0,VALID,100,VALID,-0.0509425,VALID,20.3553,VALID,273,VALID,0,
2007-04-28, 01:40:00,VALID,916.775,VALID,0,VALID,100,VALID,-0.0509425,VALID,20.3613,VALID,273,VALID,0,
2007-04-28, 01:41:01,VALID,916.754,VALID,0,VALID,100,VALID,-0.0169808,VALID,20.3645,VALID,273,VALID,0,
2007-04-28, 01:42:00,VALID,916.737,VALID,0,VALID,100,VALID,-0.0169808,VALID,20.3902,VALID,273,VALID,0.0141006,
2007-04-28, 01:43:00,VALID,916.723,VALID,0,VALID,100,VALID,-0.0509425,VALID,20.4067,VALID,331,VALID,0.394727,
2007-04-28, 01:44:01,VALID,916.693,VALID,0,VALID,100,VALID,-0.101885,VALID,20.4132,VALID,23,VALID,0.773996,
2007-04-28, 01:45:00,VALID,916.687,VALID,0,VALID,100,VALID,-0.101885,VALID,20.4332,VALID,40,VALID,0.764931,
2007-04-28, 01:46:00,VALID,916.665,VALID,0,VALID,100,VALID,-0.0849042,VALID,20.4427,VALID,42,VALID,0.745028,
2007-04-28, 01:47:00,VALID,916.649,VALID,0,VALID,100,VALID,-0.101885,VALID,20.4364,VALID,34,VALID,0.815905,
2007-04-28, 01:48:00,VALID,916.629,VALID,0,VALID,100,VALID,-0.0849042,VALID,20.4362,VALID,34,VALID,0.549055,
2007-04-28, 01:49:01,VALID,916.605,VALID,0,VALID,100,VALID,-0.0679233,VALID,20.4491,VALID,34,VALID,0.219122,
2007-04-28, 01:50:00,VALID,916.569,VALID,0,VALID,100,VALID,-0.0339617,VALID,20.4554,VALID,34,VALID,0,
2007-04-28, 01:51:01,VALID,916.557,VALID,0,VALID,100,VALID,-0.0679233,VALID,20.4526,VALID,34,VALID,0,
2007-04-28, 01:52:00,VALID,916.525,VALID,0,VALID,100,VALID,-0.0679233,VALID,20.4489,VALID,34,VALID,0,
2007-04-28, 01:53:01,VALID,916.488,VALID,0,VALID,100,VALID,-0.0849042,VALID,20.4589,VALID,34,VALID,0,
2007-04-28, 01:54:01,VALID,916.453,VALID,0,VALID,100,VALID,-0.101885,VALID,20.4554,VALID,34,VALID,0,
2007-04-28, 01:55:00,VALID,916.423,VALID,0,VALID,100,VALID,-0.0509425,VALID,20.4586,VALID,34,VALID,0,
2007-04-28, 01:56:01,VALID,916.385,VALID,0,VALID,100,VALID,-0.0849042,VALID,20.4551,VALID,34,VALID,0.00106534,
2007-04-28, 01:57:01,VALID,916.348,VALID,0,VALID,100,VALID,-0.0849042,VALID,20.4424,VALID,34,VALID,0,
2007-04-28, 01:58:01,VALID,916.323,VALID,0,VALID,100,VALID,-0.0339617,VALID,20.4486,VALID,34,VALID,0,
2007-04-28, 01:59:00,VALID,916.302,VALID,0,VALID,100,VALID,0,VALID,20.4571,VALID,34,VALID,0,
2007-04-28, 02:00:01,VALID,916.281,VALID,0,VALID,100,VALID,0.0849042,VALID,20.4765,VALID,34,VALID,0,
2007-04-28, 02:01:01,VALID,916.276,VALID,0,VALID,100,VALID,0.0679233,VALID,20.4506,VALID,34,VALID,0,
2007-04-28, 02:02:01,VALID,916.258,VALID,0,VALID,100,VALID,0.0509425,VALID,20.4344,VALID,34,VALID,0.0308866,
2007-04-28, 02:03:01,VALID,916.231,VALID,0,VALID,100,VALID,0.0679233,VALID,20.4076,VALID,34,VALID,0.0467014,
2007-04-28, 02:04:01,VALID,916.203,VALID,0,VALID,100,VALID,0.0339617,VALID,20.4216,VALID,34,VALID,0,
2007-04-28, 02:05:01,VALID,916.189,VALID,0,VALID,100,VALID,0.0339617,VALID,20.4181,VALID,34,VALID,0,
2007-04-28, 02:06:01,VALID,916.191,VALID,0,VALID,100,VALID,0.0169808,VALID,20.4146,VALID,34,VALID,0,
2007-04-28, 02:07:00,VALID,916.182,VALID,0,VALID,100,VALID,0.0339617,VALID,20.4181,VALID,34,VALID,0.00300481,
2007-04-28, 02:08:00,VALID,916.154,VALID,0,VALID,100,VALID,0.0169808,VALID,20.3987,VALID,34,VALID,0.124814,
2007-04-28, 02:09:00,VALID,916.144,VALID,0,VALID,100,VALID,0.0679233,VALID,20.3822,VALID,34,VALID,0,
2007-04-28, 02:10:00,VALID,916.115,VALID,0,VALID,100,VALID,0.0169808,VALID,20.3889,VALID,34,VALID,0,
2007-04-28, 02:11:00,VALID,916.112,VALID,0,VALID,100,VALID,0.0339617,VALID,20.3919,VALID,34,VALID,0.0292969,
2007-04-28, 02:12:00,VALID,916.108,VALID,0,VALID,100,VALID,0.0339617,VALID,20.3987,VALID,34,VALID,0.180596,
2007-04-28, 02:13:00,VALID,916.107,VALID,0,VALID,100,VALID,0.0679233,VALID,20.3759,VALID,34,VALID,0.0205305,
2007-04-28, 02:14:00,VALID,916.083,VALID,0,VALID,100,VALID,-0.0679233,VALID,20.3478,VALID,34,VALID,0,
2007-04-28, 02:15:00,VALID,916.09,VALID,0,VALID,100,VALID,-0.0509425,VALID,20.3348,VALID,34,VALID,0.0898438,
2007-04-28, 02:16:00,VALID,916.096,VALID,0,VALID,100,VALID,-0.0679233,VALID,20.3613,VALID,34,VALID,0.0689787,
2007-04-28, 02:17:00,VALID,916.077,VALID,0,VALID,100,VALID,-0.0509425,VALID,20.381,VALID,34,VALID,0.0212573,
2007-04-28, 02:18:00,VALID,916.072,VALID,0,VALID,100,VALID,-0.101885,VALID,20.3645,VALID,34,VALID,0.00284091,
2007-04-28, 02:19:00,VALID,916.054,VALID,0,VALID,100,VALID,-0.0849042,VALID,20.3618,VALID,34,VALID,0.0174851,
2007-04-28, 02:20:00,VALID,916.037,VALID,0,VALID,100,VALID,-0.0849042,VALID,20.3418,VALID,34,VALID,0.0012429,
2007-04-28, 02:21:00,VALID,916.031,VALID,0,VALID,100,VALID,-0.101885,VALID,20.3221,VALID,34,VALID,0,
2007-04-28, 02:22:00,VALID,916.011,VALID,0,VALID,100,VALID,-0.0849042,VALID,20.3288,VALID,34,VALID,0,
2007-04-28, 02:23:00,VALID,915.985,VALID,0,VALID,100,VALID,-0.0679233,VALID,20.3188,VALID,34,VALID,0,
2007-04-28, 02:24:00,VALID,915.958,VALID,0,VALID,100,VALID,-0.0679233,VALID,20.3191,VALID,34,VALID,0,
2007-04-28, 02:25:00,VALID,915.92,VALID,0,VALID,100,VALID,-0.0679233,VALID,20.3223,VALID,34,VALID,0,
2007-04-28, 02:26:00,VALID,915.906,VALID,0,VALID,100,VALID,-0.101885,VALID,20.3226,VALID,34,VALID,0,
2007-04-28, 02:27:00,VALID,915.873,VALID,0,VALID,100,VALID,-0.101885,VALID,20.3158,VALID,34,VALID,0,
2007-04-28, 02:28:00,VALID,915.859,VALID,0,VALID,100,VALID,-0.0849042,VALID,20.2996,VALID,34,VALID,0,
2007-04-28, 02:29:00,VALID,915.839,VALID,0,VALID,100,VALID,-0.101885,VALID,20.2931,VALID,34,VALID,0,
2007-04-28, 02:30:00,VALID,915.823,VALID,0,VALID,100,VALID,-0.101885,VALID,20.2804,VALID,34,VALID,0,
2007-04-28, 02:31:00,VALID,915.815,VALID,0,VALID,100,VALID,-0.0849042,VALID,20.2834,VALID,34,VALID,0,
2007-04-28, 02:32:00,VALID,915.82,VALID,0,VALID,100,VALID,-0.0849042,VALID,20.2736,VALID,34,VALID,0,
2007-04-28, 02:33:00,VALID,915.809,VALID,0,VALID,100,VALID,-0.0339617,VALID,20.2906,VALID,34,VALID,0,
2007-04-28, 02:34:00,VALID,915.815,VALID,0,VALID,100,VALID,-0.0849042,VALID,20.2904,VALID,34,VALID,0,
2007-04-28, 02:35:00,VALID,915.823,VALID,0,VALID,100,VALID,-0.0849042,VALID,20.2701,VALID,34,VALID,0,
2007-04-28, 02:36:00,VALID,915.819,VALID,0,VALID,100,VALID,-0.0849042,VALID,20.2869,VALID,34,VALID,0,
2007-04-28, 02:37:00,VALID,915.84,VALID,0,VALID,100,VALID,-0.0849042,VALID,20.3126,VALID,34,VALID,0,
2007-04-28, 02:38:00,VALID,915.838,VALID,0,VALID,100,VALID,-0.0849042,VALID,20.3223,VALID,34,VALID,0,
2007-04-28, 02:39:00,VALID,915.847,VALID,0,VALID,100,VALID,-0.101885,VALID,20.3293,VALID,34,VALID,0,
2007-04-28, 02:40:00,VALID,915.85,VALID,0,VALID,100,VALID,-0.101885,VALID,20.3066,VALID,34,VALID,0,
2007-04-28, 02:41:00,VALID,915.848,VALID,0,VALID,100,VALID,-0.0679233,VALID,20.2894,VALID,34,VALID,0.00203804,
2007-04-28, 02:42:00,VALID,915.852,VALID,0,VALID,100,VALID,-0.0849042,VALID,20.2779,VALID,34,VALID,0.121189,
2007-04-28, 02:43:00,VALID,915.843,VALID,0,VALID,100,VALID,-0.101885,VALID,20.2509,VALID,34,VALID,0.0052689,
2007-04-28, 02:44:00,VALID,915.83,VALID,0,VALID,100,VALID,-0.0679233,VALID,20.2672,VALID,34,VALID,0.181424,
2007-04-28, 02:45:00,VALID,915.826,VALID,0,VALID,100,VALID,-0.0509425,VALID,20.2731,VALID,34,VALID,0.0444712,
2007-04-28, 02:46:00,VALID,915.8,VALID,0,VALID,100,VALID,0,VALID,20.2769,VALID,34,VALID,0,
2007-04-28, 02:47:00,VALID,915.781,VALID,0,VALID,100,VALID,-0.0169808,VALID,20.2604,VALID,34,VALID,0,
2007-04-28, 02:48:00,VALID,915.765,VALID,0,VALID,100,VALID,-0.0339617,VALID,20.2512,VALID,34,VALID,0,
2007-04-28, 02:49:00,VALID,915.762,VALID,0,VALID,100,VALID,-0.0509425,VALID,20.2347,VALID,34,VALID,0,
2007-04-28, 02:50:00,VALID,915.765,VALID,0,VALID,100,VALID,0,VALID,20.2412,VALID,34,VALID,0,
2007-04-28, 02:51:00,VALID,915.781,VALID,0,VALID,100,VALID,-0.0509425,VALID,20.2409,VALID,34,VALID,0.309152,
2007-04-28, 02:52:00,VALID,915.775,VALID,0,VALID,100,VALID,-0.0339617,VALID,20.2282,VALID,34,VALID,0.109738,
2007-04-28, 02:53:00,VALID,915.781,VALID,0,VALID,100,VALID,0.0169808,VALID,20.2015,VALID,22,VALID,0.133176,
2007-04-28, 02:54:00,VALID,915.785,VALID,0,VALID,100,VALID,-0.0339617,VALID,20.1923,VALID,241,VALID,0.667969,
2007-04-28, 02:55:00,VALID,915.793,VALID,0,VALID,100,VALID,-0.0509425,VALID,20.1693,VALID,236,VALID,0.341442,
2007-04-28, 02:56:00,VALID,915.789,VALID,0,VALID,100,VALID,-0.0339617,VALID,20.1698,VALID,236,VALID,0.218387,
2007-04-28, 02:57:00,VALID,915.763,VALID,0,VALID,100,VALID,-0.0679233,VALID,20.1663,VALID,236,VALID,0.112233,
2007-04-28, 02:58:00,VALID,915.752,VALID,0,VALID,100,VALID,0,VALID,20.1563,VALID,236,VALID,0.302202,
2007-04-28, 02:59:00,VALID,915.75,VALID,0,VALID,100,VALID,-0.0169808,VALID,20.1531,VALID,236,VALID,0.046689,
2007-04-28, 03:00:00,VALID,915.732,VALID,0,VALID,100,VALID,-0.0679233,VALID,20.1533,VALID,236,VALID,0.0854167,
2007-04-28, 03:01:00,VALID,915.734,VALID,0,VALID,100,VALID,-0.0339617,VALID,20.1498,VALID,236,VALID,0.0078125,
2007-04-28, 03:02:00,VALID,915.708,VALID,0,VALID,100,VALID,0,VALID,20.1758,VALID,236,VALID,0.336293,
2007-04-28, 03:03:00,VALID,915.686,VALID,0,VALID,100,VALID,0,VALID,20.195,VALID,236,VALID,0.0880335,
2007-04-28, 03:04:00,VALID,915.667,VALID,0,VALID,100,VALID,-0.0169808,VALID,20.1955,VALID,299,VALID,0.222266,
2007-04-28, 03:05:00,VALID,915.662,VALID,0,VALID,100,VALID,0,VALID,20.1853,VALID,6,VALID,0.365767,
2007-04-28, 03:06:00,VALID,915.652,VALID,0,VALID,100,VALID,0,VALID,20.1755,VALID,21,VALID,0.474964,
2007-04-28, 03:07:00,VALID,915.642,VALID,0,VALID,100,VALID,0,VALID,20.169,VALID,32,VALID,0.761624,
2007-04-28, 03:08:00,VALID,915.637,VALID,0,VALID,100,VALID,0.0169808,VALID,20.1663,VALID,32,VALID,0.525,
2007-04-28, 03:09:00,VALID,915.629,VALID,0,VALID,100,VALID,0,VALID,20.1625,VALID,32,VALID,0.515067,
2007-04-28, 03:10:00,VALID,915.619,VALID,0,VALID,100,VALID,-0.0169808,VALID,20.1588,VALID,32,VALID,0.490057,
2007-04-28, 03:11:00,VALID,915.594,VALID,0,VALID,100,VALID,0,VALID,20.1723,VALID,34,VALID,0.727471,
2007-04-28, 03:12:00,VALID,915.594,VALID,0,VALID,100,VALID,0,VALID,20.1526,VALID,21,VALID,0.90516,
2007-04-28, 03:13:00,VALID,915.586,VALID,0,VALID,100,VALID,0,VALID,20.1561,VALID,30,VALID,0.841206,
2007-04-28, 03:14:00,VALID,915.576,VALID,0,VALID,100,VALID,-0.0169808,VALID,20.1528,VALID,22,VALID,0.735863,
2007-04-28, 03:15:00,VALID,915.574,VALID,0,VALID,100,VALID,-0.0169808,VALID,20.162,VALID,26,VALID,0.949505,
2007-04-28, 03:16:00,VALID,915.563,VALID,0,VALID,100,VALID,0.0169808,VALID,20.1753,VALID,16,VALID,0.496394,
2007-04-28, 03:17:00,VALID,915.566,VALID,0,VALID,100,VALID,0,VALID,20.192,VALID,16,VALID,0.292614,
2007-04-28, 03:18:00,VALID,915.561,VALID,0,VALID,100,VALID,0,VALID,20.185,VALID,14,VALID,0.371548,
2007-04-28, 03:19:00,VALID,915.573,VALID,0,VALID,100,VALID,0,VALID,20.182,VALID,328,VALID,0.440048,
2007-04-28, 03:20:00,VALID,915.58,VALID,0,VALID,100,VALID,0,VALID,20.1655,VALID,332,VALID,0.277253,
2007-04-28, 03:21:00,VALID,915.569,VALID,0,VALID,100,VALID,0,VALID,20.1758,VALID,2,VALID,0.412194,
2007-04-28, 03:22:00,VALID,915.579,VALID,0,VALID,100,VALID,-0.0169808,VALID,20.1785,VALID,4,VALID,0.686914,
2007-04-28, 03:23:00,VALID,915.569,VALID,0,VALID,100,VALID,-0.0169808,VALID,20.1855,VALID,353,VALID,0.946075,
2007-04-28, 03:24:00,VALID,915.581,VALID,0,VALID,100,VALID,0,VALID,20.172,VALID,357,VALID,0.853561,
2007-04-28, 03:25:00,VALID,915.58,VALID,0,VALID,100,VALID,-0.0169808,VALID,20.1653,VALID,19,VALID,0.78683,
2007-04-28, 03:26:00,VALID,915.561,VALID,0,VALID,100,VALID,0,VALID,20.1753,VALID,9,VALID,0.419744,
2007-04-28, 03:27:00,VALID,915.559,VALID,0,VALID,100,VALID,0,VALID,20.185,VALID,24,VALID,0.212984,
2007-04-28, 03:28:00,VALID,915.561,VALID,0,VALID,100,VALID,-0.0169808,VALID,20.1952,VALID,32,VALID,0.360618,
2007-04-28, 03:29:00,VALID,915.54,VALID,0,VALID,100,VALID,0,VALID,20.2047,VALID,32,VALID,0.264461,
2007-04-28, 03:30:00,VALID,915.526,VALID,0,VALID,100,VALID,-0.0169808,VALID,20.205,VALID,25,VALID,0.43859,
2007-04-28, 03:31:00,VALID,915.52,VALID,0,VALID,100,VALID,0,VALID,20.2047,VALID,24,VALID,1.26395,
2007-04-28, 03:32:00,VALID,915.529,VALID,0,VALID,100,VALID,0,VALID,20.1847,VALID,36,VALID,1.39249,
2007-04-28, 03:33:00,VALID,915.543,VALID,0,VALID,100,VALID,-0.0169808,VALID,20.2115,VALID,41,VALID,0.537427,
2007-04-28, 03:34:00,VALID,915.546,VALID,0,VALID,100,VALID,0,VALID,20.2115,VALID,345,VALID,0.26508,
2007-04-28, 03:35:00,VALID,915.569,VALID,0,VALID,100,VALID,0.0339617,VALID,20.2052,VALID,250,VALID,0.09375,
2007-04-28, 03:36:00,VALID,915.567,VALID,0,VALID,100,VALID,-0.0169808,VALID,20.2052,VALID,256,VALID,0.0176235,
2007-04-28, 03:37:00,VALID,915.548,VALID,0,VALID,100,VALID,0,VALID,20.208,VALID,34,VALID,1.23855,
2007-04-28, 03:38:00,VALID,915.547,VALID,0,VALID,100,VALID,-0.0169808,VALID,20.198,VALID,22,VALID,1.16619,
2007-04-28, 03:39:00,VALID,915.53,VALID,0,VALID,100,VALID,0.0169808,VALID,20.1882,VALID,8,VALID,0.983994,
2007-04-28, 03:40:00,VALID,915.536,VALID,0,VALID,100,VALID,0,VALID,20.1828,VALID,10,VALID,0.827172,
2007-04-28, 03:41:00,VALID,915.523,VALID,0,VALID,100,VALID,-0.0169808,VALID,20.1755,VALID,9,VALID,0.988372,
2007-04-28, 03:42:00,VALID,915.504,VALID,0,VALID,100,VALID,-0.0169808,VALID,20.1658,VALID,23,VALID,0.601749,
2007-04-28, 03:43:00,VALID,915.484,VALID,0,VALID,100,VALID,0,VALID,20.1718,VALID,25,VALID,0.724609,